Location: DARK SKY Beskydy - Park tmavé oblohy, www.darkskybeskydy.cz
(49.4926°N, 18.5016°E)
Time: 01:10:23
(UTC+02:00)

NOAA 18 - Visible Passes

Search period start: 19 April 2024 00:00
Search period end: 29 April 2024 00:00
Orbit: 839 x 858 km, 98.9° (Epoch: 18 April)

Date Brightness Start Highest point End Pass type
(mag) Time Alt. Az. Time Alt. Az. Time Alt. Az.
19 Apr 6.6 21:21:20 17° E 21:24:13 25° ENE 21:28:40 10° N visible
19 Apr 5.4 23:03:18 51° SSW 23:04:27 64° WSW 23:09:59 10° NNW visible
20 Apr 7.6 00:45:45 10° W 00:46:11 10° W 00:46:38 10° WNW visible
20 Apr 6.8 21:08:38 13° E 21:11:55 21° NE 21:15:56 10° N visible
20 Apr 5.2 22:50:35 53° S 22:51:57 79° WSW 22:57:33 10° NNW visible
21 Apr 7.4 00:32:32 13° W 00:33:30 13° W 00:36:05 10° WNW visible
21 Apr 7.0 20:56:06 10° E 20:59:37 18° NE 21:03:08 10° NNE visible
21 Apr 5.1 22:37:52 48° SSE 22:39:29 85° ENE 22:45:04 10° NNW visible
22 Apr 7.2 00:19:49 16° W 00:20:50 17° W 00:24:21 10° NW visible
22 Apr 7.2 20:44:28 10° E 20:47:21 15° NE 20:50:14 10° NNE visible
22 Apr 5.2 22:25:09 42° SE 22:27:02 69° ENE 22:32:34 10° N visible
23 Apr 6.9 00:07:06 20° WSW 00:08:12 21° W 00:12:21 10° NW visible
23 Apr 7.3 20:33:06 10° ENE 20:35:06 12° NE 20:37:05 10° NNE visible
23 Apr 5.5 22:12:26 34° SE 22:14:37 56° ENE 22:20:02 10° N visible
23 Apr 6.6 23:54:23 24° WSW 23:55:34 26° W 00:00:12 10° NW visible
24 Apr 5.7 21:59:43 28° ESE 22:02:12 45° ENE 22:07:28 10° N visible
24 Apr 6.4 23:41:40 29° WSW 23:43:00 32° W 23:47:58 10° NNW visible
25 Apr 6.0 21:47:00 23° ESE 21:49:49 37° ENE 21:54:52 10° N visible
25 Apr 6.1 23:28:58 34° SW 23:30:25 40° W 23:35:39 10° NNW visible
26 Apr 6.3 21:34:18 18° ESE 21:37:27 31° ENE 21:42:14 10° N visible
26 Apr 5.7 23:16:15 38° SSW 23:17:52 50° W 23:23:17 10° NNW visible
27 Apr 6.6 21:21:35 14° ESE 21:25:07 25° ENE 21:29:34 10° N visible
27 Apr 5.4 23:03:32 41° SSW 23:05:21 63° WSW 23:10:53 10° NNW visible
28 Apr 6.8 21:08:52 10° ESE 21:12:48 21° NE 21:16:50 10° N visible
28 Apr 5.2 22:50:49 41° S 22:52:52 78° WSW 22:58:25 10° NNW visible
